SCP
0 0 0 0 0 0 0 0 0 0 0 0 0 0 0 0 0 0 0 1 1 1 0 0 0 0 0 0 0 0 0 0 0 0 0 0 0 0 0 0 0 0 0
0 0 0 0 0 0 0 0 0 0 0 0 0 0 0 0 0 0 0 0 1 0 0 0 0 0 -0 0 0 0 0 0 0 0 0 0 0 0 0 0 0 0 0
0 0 0 0 0 0 0 0 0 0 0 0 0 0 0 0 0 0 0 1 1 0 0 0 0 0 0 0 0 0 0 0 -0 0 0 0 0 0 0 0 0 0 0
0 0 0 0 0 0 0 0 0 0 0 0 0 0 0 0 0 0 0 0 1 1 0 0 0 0 0 0 0 0 0 0 0 0 0 0 0 0 0 0 0 0 0
0 0 0 0 0 0 0 0 0 0 0 0 0 0 0 0 0 0 0 0 0 0 0 0 0 0 0 0 0 0 0 0 0 0 0 0 0 0 0 0 0 0 0
0 0 0 0 0 0 0 0 0 0 0 0 0 0 0 0 0 0 0 0 0 0 0 0 0 0 0 0 0 0 0 0 0 0 0 0 0 0 0 0 -0 0 0
0 0 0 0 0 0 0 -0 0 0 0 0 0 0 0 0 0 0 0 0 0 0 0 0 0 0 0 0 0 0 0 0 0 0 0 0 0 0 -0 0 0 0 0
0 0 0 0 0 -0 -0 0 0 0 0 0 0 0 0 0 0 0 0 0 0 0 0 0 0 0 0 0 0 0 0 0 0 -0 -0 -0 -0 0 0 0 0 0 0
0 0 0 0 -0 -0 -0 0 0 0 0 0 0 0 0 0 0 0 0 0 0 0 0 0 0 0 0 0 0 0 0 0 -0 -0 -0 -0 0 -0 0 0 0 0 0
0 0 -0 -0 -0 0 -0 0 0 0 0 0 0 0 0 0 0 0 0 0 0 0 0 0 0 0 0 0 0 0 0 0 -0 -0 0 -0 -0 0 0 0 0 0 0
-0 0 -0 -0 -0 -0 -0 0 0 0 0 0 0 0 0 0 0 0 0 0 0 0 0 0 0 0 0 0 0 0 0 0 -0 0 -0 0 0 0 0 0 0 0 0
-0 0 -0 0 0 0 -0 -0 0 0 0 0 0 0 0 0 0 0 0 0 0 0 0 0 0 0 0 0 0 0 0 0 -0 -0 0 0 0 0 0 0 0 0 0
-0 -0 0 -0 0 0 0 0 -0 0 0 0 0 0 0 0 0 0 0 0 0 0 0 0 0 0 0 0 0 0 0 0 0 0 0 0 0 0 0 0 0 0 0
-0 0 0 0 0 0 0 0 0 0 0 0 0 0 0 0 0 0 0 0 0 0 0 0 0 0 0 0 0 0 0 0 0 0 0 0 0 0 0 0 0 0 0
0 0 0 0 0 0 0 0 0 0 0 0 0 0 0 0 0 0 0 0 0 0 0 0 0 0 0 0 0 0 0 0 0 0 0 0 0 0 0 0 0 0 0
0 0 0 0 0 0 0 0 0 0 0 0 0 0 0 0 0 0 0 0 0 0 0 0 0 0 0 0 0 0 0 0 0 0 0 0 0 0 0 0 0 0 0
0 0 0 0 0 0 0 0 0 0 0 0 0 0 0 0 0 0 0 0 0 0 0 0 0 0 0 0 0 0 0 0 0 0 -0 0 0 0 0 0 0 0 0
0 0 0 0 0 0 0 0 0 0 0 0 0 0 0 0 0 0 0 0 0 0 0 0 0 0 0 0 0 0 0 0 0 -0 0 0 -0 0 0 0 0 0 0
0 0 0 0 0 0 0 0 0 0 0 0 0 0 0 0 0 0 0 0 0 0 0 0 0 0 0 0 0 0 0 0 0 0 0 0 0 0 0 0 0 0 0
-0 0 0 0 0 0 0 0 0 0 0 0 0 0 0 0 0 0 0 0 0 0 0 0 0 0 0 0 0 0 0 0 0 0 0 0 0 0 0 0 0 0 0
-0 -0 -0 0 0 0 0 0 0 0 0 0 0 0 0 0 0 0 0 0 0 0 0 0 0 0 0 0 0 0 0 0 0 0 0 0 0 0 0 0 0 0 0
0 0 -0 -0 0 0 0 0 0 0 0 0 0 0 0 0 0 0 0 0 0 0 0 0 0 0 0 0 0 0 0 0 0 0 0 0 0 0 0 0 0 0 0
0 0 0 0 0 0 0 0 0 0 0 0 0 0 0 0 0 0 0 0 0 0 0 0 0 0 0 0 0 0 -0 0 0 0 0 0 0 0 0 0 0 0 0
0 0 0 0 0 0 0 0 0 0 0 0 0 0 0 0 0 0 0 0 0 0 0 0 0 0 0 0 -0 -0 0 0 0 0 0 0 0 0 0 0 0 0 0
0 0 0 0 0 0 0 0 0 0 0 0 0 0 0 0 0 0 0 0 0 0 0 0 0 -0 -0 0 -0 0 0 0 0 0 0 0 0 0 0 0 0 0 0
0 0 0 0 0 0 0 0 0 0 0 0 0 -0 -0 0 0 0 0 0 0 0 0 0 0 -0 -0 -0 0 0 0 0 0 0 0 0 0 0 0 0 0 0 0
Wind_Speed_500mb
31 28 29 26 24 26 26 30 30 33 35 40 45 42 39 37 36 36 36 35 34 35 41 46 44 38 52 62 60 63 58 65 51 44 43 40 35 31 28 22 17 13 9
34 36 36 29 27 28 26 28 30 32 37 38 38 35 39 38 35 39 37 37 34 37 46 46 48 46 62 55 67 65 61 64 53 48 45 39 34 30 25 20 15 11 10
36 35 32 29 26 28 28 25 29 31 35 38 33 34 39 33 33 42 35 37 35 38 50 47 46 52 57 63 59 59 66 59 52 49 44 38 33 27 22 17 12 11 15
35 32 30 26 24 27 28 27 31 29 35 36 33 38 37 31 35 36 32 34 34 38 50 48 46 51 50 51 59 64 66 58 52 46 42 35 28 24 19 13 11 16 20
32 34 30 27 26 26 27 27 34 29 38 38 31 37 32 33 37 33 31 33 32 38 48 47 47 51 50 56 61 68 63 58 52 48 38 34 29 23 16 12 16 21 19
24 28 26 22 24 23 18 33 29 28 34 37 33 35 33 31 30 28 30 33 31 31 40 49 46 48 53 59 67 76 62 53 49 46 41 34 27 18 11 17 21 18 14
19 24 19 19 23 19 20 33 30 27 33 36 34 30 27 27 31 30 31 36 39 37 39 47 40 48 54 60 70 71 62 58 52 46 39 31 23 12 11 15 15 14 11
8 14 13 19 20 19 29 32 31 34 36 33 34 35 26 27 32 36 36 40 42 44 42 43 42 51 61 73 84 78 63 59 50 42 35 25 17 8 12 11 12 14 9
8 10 11 13 18 23 29 34 35 35 38 33 34 27 16 10 37 30 35 38 46 47 43 42 46 42 51 77 75 63 61 54 48 42 31 25 15 10 10 12 14 12 5
7 9 10 10 16 22 32 32 30 29 37 35 41 29 29 34 20 20 34 37 40 44 35 32 61 56 69 82 72 63 58 53 46 38 31 26 16 7 11 13 12 7 2
8 11 12 14 15 21 30 32 30 25 31 41 46 34 26 37 32 36 28 37 34 37 31 30 29 49 68 72 67 67 55 51 44 35 26 21 8 10 13 15 11 5 3
10 13 13 14 14 21 29 35 31 25 29 33 28 29 35 39 33 42 34 35 36 25 27 27 37 53 69 79 67 61 56 47 39 30 22 14 9 12 13 12 9 6 6
8 10 17 16 16 21 26 32 32 32 30 28 28 25 29 25 43 48 47 44 36 31 28 42 57 63 79 66 70 52 52 40 29 22 19 12 11 12 12 12 7 9 6
6 11 21 19 20 22 26 28 28 30 30 28 24 23 27 30 34 39 53 55 44 23 31 38 39 53 62 62 66 50 39 30 23 17 16 13 9 11 12 8 8 9 9
8 12 22 23 24 23 24 27 29 30 28 27 26 23 20 29 39 36 22 40 53 36 26 48 41 52 60 65 61 48 36 31 25 19 13 10 8 9 8 6 9 10 12
9 13 17 24 26 25 25 26 29 26 28 30 26 24 26 29 33 32 26 40 38 46 20 43 44 45 64 50 62 51 37 32 25 16 11 5 6 6 6 6 9 11 16
11 13 17 22 27 28 29 28 27 26 27 29 25 23 21 24 34 36 26 33 34 34 38 27 37 48 64 47 62 45 36 24 16 7 8 6 6 8 7 9 11 16 22
15 15 16 18 24 27 27 26 26 26 32 26 23 24 28 25 32 32 28 30 31 32 27 42 39 52 62 56 52 44 25 14 2 3 7 7 7 9 10 11 15 21 24
15 16 18 18 22 26 27 25 21 25 27 21 21 21 25 30 33 29 34 30 31 31 30 39 58 61 61 62 48 31 22 16 13 4 3 6 9 7 12 16 20 23 25
17 18 19 18 19 22 24 26 19 27 29 21 20 25 26 27 29 31 30 30 31 31 38 39 42 44 41 51 39 29 27 17 10 6 7 6 8 12 14 17 22 26 32
21 22 20 21 18 19 20 25 27 34 22 19 21 31 35 32 31 35 37 33 44 50 40 39 37 35 38 40 36 28 23 16 10 7 3 5 8 12 19 23 29 36 39
19 18 23 14 15 19 20 23 39 36 22 23 31 40 37 38 37 44 39 36 44 41 37 32 28 30 33 33 27 20 23 18 8 4 5 8 17 21 26 29 31 33 34
16 17 22 15 14 20 30 23 44 33 31 27 37 31 44 38 46 48 40 37 32 26 20 14 22 25 24 22 22 19 17 11 7 6 9 14 19 26 26 30 35 39 41
15 16 15 15 19 20 30 34 41 41 31 31 34 46 48 37 40 40 38 39 29 25 28 33 33 31 25 22 21 17 12 9 8 13 15 14 20 27 32 32 32 31 34
16 20 20 21 22 31 31 32 41 42 35 35 47 41 41 40 33 30 26 29 32 27 24 21 21 18 16 17 13 11 6 7 9 13 17 25 24 27 28 10 21 26 29
13 17 19 21 22 20 26 29 31 37 46 42 49 47 43 26 19 25 25 26 24 27 25 22 23 18 12 7 4 2 5 9 11 14 17 18 20 18 5 7 23 25 33
Wind_Direction_500mb
270 271 270 285 278 267 270 256 245 232 227 222 220 228 219 214 214 215 206 207 204 201 201 196 191 185 213 195 190 184 188 180 168 172 169 164 166 165 157 150 153 155 160
266 266 271 271 277 272 274 256 237 229 224 214 218 213 207 209 214 208 202 205 199 196 196 189 196 193 206 194 187 198 191 170 168 168 171 168 164 158 152 152 153 153 160
268 267 261 264 272 270 264 248 229 222 215 205 211 209 202 205 214 200 200 203 198 201 200 196 199 200 198 203 201 199 183 164 169 170 170 162 160 156 153 151 152 151 141
270 263 258 265 270 270 262 250 222 216 199 201 206 201 201 202 194 199 205 201 202 201 200 202 200 197 201 205 195 191 172 164 169 170 161 159 155 155 153 156 153 141 131
269 259 260 260 260 272 268 233 204 204 200 201 207 199 200 206 196 201 202 201 200 204 202 198 199 198 197 195 190 184 165 165 167 163 156 162 158 158 153 142 145 138 130
267 251 251 250 249 264 245 190 193 197 201 201 196 198 209 201 208 209 208 199 204 194 200 195 195 199 198 196 189 172 163 167 164 157 164 158 152 143 135 148 133 132 134
262 238 237 239 243 244 207 185 186 188 184 185 188 205 198 201 208 213 209 201 201 198 199 192 199 194 191 194 185 166 165 164 164 158 156 148 138 130 98 141 143 140 147
210 203 217 236 230 209 189 186 187 178 177 184 194 181 171 195 205 212 211 202 199 200 205 203 196 193 193 188 175 163 166 161 154 152 146 134 114 144 146 140 147 156 151
172 195 204 210 202 194 189 186 190 190 183 186 193 180 159 171 182 193 197 207 201 202 198 205 201 200 205 180 158 162 158 152 154 156 141 141 151 117 142 168 172 163 147
202 205 192 202 192 193 193 191 192 195 200 202 194 203 188 191 165 161 198 206 206 207 207 209 207 209 182 170 159 159 159 152 156 148 162 156 108 153 171 175 171 167 195
199 177 198 194 201 197 191 191 191 197 197 198 191 200 187 169 166 159 156 178 192 203 196 184 189 179 175 165 159 158 152 161 158 159 159 122 151 169 177 181 173 203 272
215 190 194 190 194 187 190 194 192 195 194 197 199 213 204 173 171 175 159 165 184 181 189 193 190 181 175 159 154 147 150 157 158 162 142 115 194 181 190 179 190 237 264
174 194 193 186 179 168 175 184 192 193 190 201 218 211 213 201 186 203 174 161 158 166 176 193 203 173 174 161 159 154 153 152 149 153 122 204 205 193 191 193 216 264 283
133 173 185 180 168 161 165 175 176 183 192 200 211 222 213 208 192 205 196 179 163 162 155 168 166 171 163 166 164 159 151 147 155 150 179 203 190 203 199 204 253 276 294
122 147 174 171 163 157 162 170 171 181 189 197 207 207 223 204 208 181 193 196 174 158 161 170 162 184 175 174 173 166 155 161 165 176 195 183 194 205 207 238 269 288 309
108 129 158 176 175 167 165 165 169 178 195 197 202 211 210 204 182 197 214 200 188 175 139 175 184 174 180 165 165 162 163 172 173 187 179 175 204 203 239 269 284 311 326
102 122 139 166 174 173 171 171 173 181 187 187 199 207 201 201 200 213 206 211 205 197 171 148 166 172 169 175 163 162 162 163 173 205 174 196 197 234 262 286 319 330 327
102 122 144 152 167 172 170 176 176 176 173 180 194 202 201 196 194 196 196 195 200 195 180 171 169 165 176 171 164 165 165 174 162 184 207 192 225 255 289 321 331 325 327
113 122 124 144 157 161 164 171 174 177 181 185 180 185 187 179 177 180 175 187 182 171 183 181 167 165 178 172 178 191 200 218 269 244 219 237 274 306 321 330 327 329 324
103 127 131 132 154 162 162 164 165 160 155 172 191 191 186 182 184 174 179 191 189 167 156 150 159 158 158 170 185 198 214 237 232 250 266 281 312 326 334 318 308 302 297
89 116 135 143 139 162 163 171 166 152 146 146 151 162 156 157 161 160 153 137 144 144 149 147 151 163 178 187 193 198 206 214 205 224 256 341 347 317 300 300 299 301 303
73 96 125 142 170 170 168 181 173 174 155 130 141 149 154 152 152 146 157 146 141 147 144 148 149 158 163 171 176 182 182 190 192 157 109 331 305 308 309 315 322 325 324
78 90 120 116 126 166 170 151 172 170 162 143 146 139 142 128 127 131 136 138 138 140 152 147 155 167 163 162 161 158 161 160 187 248 301 313 321 322 331 332 327 323 318
96 106 124 98 109 117 164 164 159 165 152 137 139 144 143 135 136 139 144 136 143 141 126 110 112 118 128 135 133 144 157 197 269 308 316 310 311 321 328 325 311 315 330
112 114 104 112 123 109 125 171 191 192 178 165 168 161 155 141 134 138 137 143 141 130 127 136 139 139 143 163 172 185 208 265 279 276 295 309 317 310 307 297 333 339 333
130 136 122 111 116 129 123 119 133 162 173 172 167 157 156 160 155 149 142 148 141 133 127 135 145 155 168 186 182 323 320 312 307 309 311 285 290 310 312 228 326 333 340
Wind_Speed_850mb
31 28 29 26 24 26 26 30 30 33 35 40 45 42 39 37 36 36 36 35 34 35 41 46 44 38 52 62 60 63 58 65 51 44 43 40 35 31 28 22 17 13 9
34 36 36 29 27 28 26 28 30 32 37 38 38 35 39 38 35 39 37 37 34 37 46 46 48 46 62 55 67 65 61 64 53 48 45 39 34 30 25 20 15 11 10
36 35 32 29 26 28 28 25 29 31 35 38 33 34 39 33 33 42 35 37 35 38 50 47 46 52 57 63 59 59 66 59 52 49 44 38 33 27 22 17 12 11 15
35 32 30 26 24 27 28 27 31 29 35 36 33 38 37 31 35 36 32 34 34 38 50 48 46 51 50 51 59 64 66 58 52 46 42 35 28 24 19 13 11 16 20
32 34 30 27 26 26 27 27 34 29 38 38 31 37 32 33 37 33 31 33 32 38 48 47 47 51 50 56 61 68 63 58 52 48 38 34 29 23 16 12 16 21 19
24 28 26 22 24 23 18 33 29 28 34 37 33 35 33 31 30 28 30 33 31 31 40 49 46 48 53 59 67 76 62 53 49 46 41 34 27 18 11 17 21 18 14
19 24 19 19 23 19 20 33 30 27 33 36 34 30 27 27 31 30 31 36 39 37 39 47 40 48 54 60 70 71 62 58 52 46 39 31 23 12 11 15 15 14 11
8 14 13 19 20 19 29 32 31 34 36 33 34 35 26 27 32 36 36 40 42 44 42 43 42 51 61 73 84 78 63 59 50 42 35 25 17 8 12 11 12 14 9
8 10 11 13 18 23 29 34 35 35 38 33 34 27 16 10 37 30 35 38 46 47 43 42 46 42 51 77 75 63 61 54 48 42 31 25 15 10 10 12 14 12 5
7 9 10 10 16 22 32 32 30 29 37 35 41 29 29 34 20 20 34 37 40 44 35 32 61 56 69 82 72 63 58 53 46 38 31 26 16 7 11 13 12 7 2
8 11 12 14 15 21 30 32 30 25 31 41 46 34 26 37 32 36 28 37 34 37 31 30 29 49 68 72 67 67 55 51 44 35 26 21 8 10 13 15 11 5 3
10 13 13 14 14 21 29 35 31 25 29 33 28 29 35 39 33 42 34 35 36 25 27 27 37 53 69 79 67 61 56 47 39 30 22 14 9 12 13 12 9 6 6
8 10 17 16 16 21 26 32 32 32 30 28 28 25 29 25 43 48 47 44 36 31 28 42 57 63 79 66 70 52 52 40 29 22 19 12 11 12 12 12 7 9 6
6 11 21 19 20 22 26 28 28 30 30 28 24 23 27 30 34 39 53 55 44 23 31 38 39 53 62 62 66 50 39 30 23 17 16 13 9 11 12 8 8 9 9
8 12 22 23 24 23 24 27 29 30 28 27 26 23 20 29 39 36 22 40 53 36 26 48 41 52 60 65 61 48 36 31 25 19 13 10 8 9 8 6 9 10 12
9 13 17 24 26 25 25 26 29 26 28 30 26 24 26 29 33 32 26 40 38 46 20 43 44 45 64 50 62 51 37 32 25 16 11 5 6 6 6 6 9 11 16
11 13 17 22 27 28 29 28 27 26 27 29 25 23 21 24 34 36 26 33 34 34 38 27 37 48 64 47 62 45 36 24 16 7 8 6 6 8 7 9 11 16 22
15 15 16 18 24 27 27 26 26 26 32 26 23 24 28 25 32 32 28 30 31 32 27 42 39 52 62 56 52 44 25 14 2 3 7 7 7 9 10 11 15 21 24
15 16 18 18 22 26 27 25 21 25 27 21 21 21 25 30 33 29 34 30 31 31 30 39 58 61 61 62 48 31 22 16 13 4 3 6 9 7 12 16 20 23 25
17 18 19 18 19 22 24 26 19 27 29 21 20 25 26 27 29 31 30 30 31 31 38 39 42 44 41 51 39 29 27 17 10 6 7 6 8 12 14 17 22 26 32
21 22 20 21 18 19 20 25 27 34 22 19 21 31 35 32 31 35 37 33 44 50 40 39 37 35 38 40 36 28 23 16 10 7 3 5 8 12 19 23 29 36 39
19 18 23 14 15 19 20 23 39 36 22 23 31 40 37 38 37 44 39 36 44 41 37 32 28 30 33 33 27 20 23 18 8 4 5 8 17 21 26 29 31 33 34
16 17 22 15 14 20 30 23 44 33 31 27 37 31 44 38 46 48 40 37 32 26 20 14 22 25 24 22 22 19 17 11 7 6 9 14 19 26 26 30 35 39 41
15 16 15 15 19 20 30 34 41 41 31 31 34 46 48 37 40 40 38 39 29 25 28 33 33 31 25 22 21 17 12 9 8 13 15 14 20 27 32 32 32 31 34
16 20 20 21 22 31 31 32 41 42 35 35 47 41 41 40 33 30 26 29 32 27 24 21 21 18 16 17 13 11 6 7 9 13 17 25 24 27 28 10 21 26 29
13 17 19 21 22 20 26 29 31 37 46 42 49 47 43 26 19 25 25 26 24 27 25 22 23 18 12 7 4 2 5 9 11 14 17 18 20 18 5 7 23 25 33
Wind_Direction_850mb
270 271 270 285 278 267 270 256 245 232 227 222 220 228 219 214 214 215 206 207 204 201 201 196 191 185 213 195 190 184 188 180 168 172 169 164 166 165 157 150 153 155 160
266 266 271 271 277 272 274 256 237 229 224 214 218 213 207 209 214 208 202 205 199 196 196 189 196 193 206 194 187 198 191 170 168 168 171 168 164 158 152 152 153 153 160
268 267 261 264 272 270 264 248 229 222 215 205 211 209 202 205 214 200 200 203 198 201 200 196 199 200 198 203 201 199 183 164 169 170 170 162 160 156 153 151 152 151 141
270 263 258 265 270 270 262 250 222 216 199 201 206 201 201 202 194 199 205 201 202 201 200 202 200 197 201 205 195 191 172 164 169 170 161 159 155 155 153 156 153 141 131
269 259 260 260 260 272 268 233 204 204 200 201 207 199 200 206 196 201 202 201 200 204 202 198 199 198 197 195 190 184 165 165 167 163 156 162 158 158 153 142 145 138 130
267 251 251 250 249 264 245 190 193 197 201 201 196 198 209 201 208 209 208 199 204 194 200 195 195 199 198 196 189 172 163 167 164 157 164 158 152 143 135 148 133 132 134
262 238 237 239 243 244 207 185 186 188 184 185 188 205 198 201 208 213 209 201 201 198 199 192 199 194 191 194 185 166 165 164 164 158 156 148 138 130 98 141 143 140 147
210 203 217 236 230 209 189 186 187 178 177 184 194 181 171 195 205 212 211 202 199 200 205 203 196 193 193 188 175 163 166 161 154 152 146 134 114 144 146 140 147 156 151
172 195 204 210 202 194 189 186 190 190 183 186 193 180 159 171 182 193 197 207 201 202 198 205 201 200 205 180 158 162 158 152 154 156 141 141 151 117 142 168 172 163 147
202 205 192 202 192 193 193 191 192 195 200 202 194 203 188 191 165 161 198 206 206 207 207 209 207 209 182 170 159 159 159 152 156 148 162 156 108 153 171 175 171 167 195
199 177 198 194 201 197 191 191 191 197 197 198 191 200 187 169 166 159 156 178 192 203 196 184 189 179 175 165 159 158 152 161 158 159 159 122 151 169 177 181 173 203 272
215 190 194 190 194 187 190 194 192 195 194 197 199 213 204 173 171 175 159 165 184 181 189 193 190 181 175 159 154 147 150 157 158 162 142 115 194 181 190 179 190 237 264
174 194 193 186 179 168 175 184 192 193 190 201 218 211 213 201 186 203 174 161 158 166 176 193 203 173 174 161 159 154 153 152 149 153 122 204 205 193 191 193 216 264 283
133 173 185 180 168 161 165 175 176 183 192 200 211 222 213 208 192 205 196 179 163 162 155 168 166 171 163 166 164 159 151 147 155 150 179 203 190 203 199 204 253 276 294
122 147 174 171 163 157 162 170 171 181 189 197 207 207 223 204 208 181 193 196 174 158 161 170 162 184 175 174 173 166 155 161 165 176 195 183 194 205 207 238 269 288 309
108 129 158 176 175 167 165 165 169 178 195 197 202 211 210 204 182 197 214 200 188 175 139 175 184 174 180 165 165 162 163 172 173 187 179 175 204 203 239 269 284 311 326
102 122 139 166 174 173 171 171 173 181 187 187 199 207 201 201 200 213 206 211 205 197 171 148 166 172 169 175 163 162 162 163 173 205 174 196 197 234 262 286 319 330 327
102 122 144 152 167 172 170 176 176 176 173 180 194 202 201 196 194 196 196 195 200 195 180 171 169 165 176 171 164 165 165 174 162 184 207 192 225 255 289 321 331 325 327
113 122 124 144 157 161 164 171 174 177 181 185 180 185 187 179 177 180 175 187 182 171 183 181 167 165 178 172 178 191 200 218 269 244 219 237 274 306 321 330 327 329 324
103 127 131 132 154 162 162 164 165 160 155 172 191 191 186 182 184 174 179 191 189 167 156 150 159 158 158 170 185 198 214 237 232 250 266 281 312 326 334 318 308 302 297
89 116 135 143 139 162 163 171 166 152 146 146 151 162 156 157 161 160 153 137 144 144 149 147 151 163 178 187 193 198 206 214 205 224 256 341 347 317 300 300 299 301 303
73 96 125 142 170 170 168 181 173 174 155 130 141 149 154 152 152 146 157 146 141 147 144 148 149 158 163 171 176 182 182 190 192 157 109 331 305 308 309 315 322 325 324
78 90 120 116 126 166 170 151 172 170 162 143 146 139 142 128 127 131 136 138 138 140 152 147 155 167 163 162 161 158 161 160 187 248 301 313 321 322 331 332 327 323 318
96 106 124 98 109 117 164 164 159 165 152 137 139 144 143 135 136 139 144 136 143 141 126 110 112 118 128 135 133 144 157 197 269 308 316 310 311 321 328 325 311 315 330
112 114 104 112 123 109 125 171 191 192 178 165 168 161 155 141 134 138 137 143 141 130 127 136 139 139 143 163 172 185 208 265 279 276 295 309 317 310 307 297 333 339 333
130 136 122 111 116 129 123 119 133 162 173 172 167 157 156 160 155 149 142 148 141 133 127 135 145 155 168 186 182 323 320 312 307 309 311 285 290 310 312 228 326 333 340